Tracking 21676 objects as of 29-Oct-2020
HD Live streaming from Space Station
objects crossing your sky now

COSMOS 540

Track COSMOS 540 now!
10-day predictions
COSMOS 540 is classified as:


NORAD ID: 6323
Int'l Code: 1972-104A
Perigee: 765.0 km
Apogee: 789.6 km
Inclination: 74.1 °
Period: 100.2 minutes
Semi major axis: 7148 km
RCS: 2.1717 m2 (large)
Launch date: December 25, 1972
Source: Commonwealth of Independent States (former USSR) (CIS)
Launch site: PLESETSK MISSILE AND SPACE COMPLEX (PKMTR)
aabbcc
Your satellite tracking list
Your tracking list is empty




NASA's NSSDC Master Catalog

Two Line Element Set (TLE):
1  6323U 72104A   20302.36616452 +.00000003 +00000-0 +97199-5 0  9991
2  6323 074.0792 272.3823 0017189 042.1404 318.1067 14.36472945503451
Source of the keplerian elements: AFSPC